THOR AGENA D R/B, 2825

Orbit data source: Space-Track

THOR AGENA D R/B, 2825 is space debris in LEO originally from a launch on Wed, 31 May 1967 UTC launched from the Air Force Western Test Range (AFWTR). Debris objects in space refer to the collection of defunct objects orbiting the Earth. Examples of debris include non-operational satellites, rocket bodies, and fragments generated from explosions, collisions, or faulty payload assembly.

Loading next visibility...
Identifier
2825, 1967-053B
Orbit
LEO
Country
Flag of USUS
Related business
Manufacturer
LMSC
Mission
Spacecraft
Bus & Motor
AGENA D, Unknown motor
Mass
600 kg wet, 600 kg dry
Launch date (UTC)
1967-05-31 (58 years ago)
Launch vehicle
Unknown
Launch site
Air Force Western Test Range (AFWTR)
Object type
Payload
Rocket body
Debris
Shape & HBR
Cyl + 1 Nozzle, 3.1 m
Radar Cross Section
8.306 m², Large (>1 m²)

Expand to show TLE details & history
Last TLE update: 17 hours ago

TLE from 17 hours ago
0 THOR AGENA D R/B
1 02825U 67053B   25261.06373875  .00000045  00000-0  69728-4 0  9998
2 02825  69.9711 297.7308 0006867 191.2585 168.8368 13.97654530 54075
Epoch: 2025-09-18T01:31Z
TLE epoch observation values (Epoch: 2025-09-18T01:31:47.027Z)
Latitude
-0.00013°
Longitude
-82.4459°
Altitude
909.146 km
Speed
7.395 km/s
True Right ascension
19h 50m 55s
True Declination
0° 00' 00"
Sunlit
Object was in full shadow at epoch
Visualization orbit readout
Latitude
Unknown
Longitude
Unknown
Altitude
Unknown
Speed
Unknown
Apparent Right ascension
Unknown
Apparent Declination
Unknown
Sunlit
N/A
Visualization observer readout
Local Sidereal Time
11:35:09
Azimuth
Unknown
Elevation
Unknown
Doppler factor
Unknown
Orbital elements
Apogee altitude
904.971 km
Perigee altitude
894.975 km
Semi-major axis
7,278.11 km
Eccentricity
0.00069
Inclination
69.9711°
RAAN
297.7308°
Arg. of periapsis
191.2585°
True anomaly
168.85202°
Mean anomaly
168.8368°
Eccentric anomaly
168.84441°
Mean motion
3.49555 °/min
Orbital period
102.99 mins
BSTAR
0.000069728
Loading maneuver chart data...
Computing Atmospheric mass density...
Loading historical data...
Loading historical data...
Loading historical data...
Loading historical data...
Loading historical data...
Loading historical data...
Loading historical data...

Documentation

Showing up to 5 results
|